EW5393 Weather Reports


Display with metric or nautical units.
time (UTC)temp
F
wind
direction
speed
MPH
gust
MPH
rain 1hr
in
rain 24hr
in
rain mn
in
humidity
%
barometer
mb
20260509222306 64 285 1.0 5.0 0.00 0.00 0.00 35 1017.5
20260509220804 64 161 2.0 5.0 0.00 0.00 0.00 35 1017.5
20260509215803 65 97 1.0 5.0 0.00 0.00 0.00 34 1017.8
20260509215306 66 51 1.0 2.0 0.00 0.00 0.00 35 1017.6
20260509214804 66 38 1.0 3.0 0.00 0.00 0.00 35 1017.7
20260509213804 66 66 2.0 5.0 0.00 0.00 0.00 36 1017.9
20260509213304 65 68 1.0 2.0 0.00 0.00 0.00 35 1017.8
20260509212804 64 18 1.0 2.0 0.00 0.00 0.00 37 1017.8
20260509211804 64 170 1.0 6.0 0.00 0.00 0.00 34 1018.1
20260509211305 65 74 2.0 7.0 0.00 0.00 0.00 34 1018.0
20260509210804 65 34 1.0 3.0 0.00 0.00 0.00 33 1017.8
20260509210304 65 121 2.0 12.0 0.00 0.00 0.00 34 1018.1
20260509205804 66 65 2.0 3.0 0.00 0.00 0.00 35 1017.8
20260509205307 66 348 2.0 3.0 0.00 0.00 0.00 35 1017.9
20260509204804 67 14 3.0 7.0 0.00 0.00 0.00 34 1017.7
20260509202804 67 63 1.0 3.0 0.00 0.00 0.00 33 1018.0
20260509202306 67 281 1.0 3.0 0.00 0.00 0.00 32 1017.9
20260509201804 66 174 3.0 6.0 0.00 0.00 0.00 35 1017.8
20260509201304 65 140 2.0 6.0 0.00 0.00 0.00 33 1018.0
20260509200804 65 325 1.0 5.0 0.00 0.00 0.00 34 1017.9
20260509200304 65 128 1.0 3.0 0.00 0.00 0.00 34 1018.1
20260509195306 66 137 2.0 5.0 0.00 0.00 0.00 33 1018.0
20260509194304 67 337 2.0 5.0 0.00 0.00 0.00 33 1017.9
20260509193804 67 290 2.0 5.0 0.00 0.00 0.00 33 1018.0
20260509193304 66 302 2.0 6.0 0.00 0.00 0.00 34 1018.2
20260509192804 66 152 2.0 5.0 0.00 0.00 0.00 33 1018.1
20260509192306 66 100 2.0 5.0 0.00 0.00 0.00 35 1018.2
20260509191804 65 93 3.0 6.0 0.00 0.00 0.00 35 1018.3
20260509191304 65 119 2.0 8.0 0.00 0.00 0.00 34 1018.2
20260509190804 65 312 2.0 7.0 0.00 0.00 0.00 34 1018.4
20260509185804 67 117 2.0 5.0 0.00 0.00 0.00 36 1018.0
20260509185306 67 102 1.0 5.0 0.00 0.00 0.00 34 1018.1
20260509184804 67 51 2.0 3.0 0.00 0.00 0.00 37 1018.4
20260509184304 66 28 1.0 2.0 0.00 0.00 0.00 36 1018.3
20260509183804 66 37 1.0 3.0 0.00 0.00 0.00 37 1018.3
20260509183304 66 30 2.0 5.0 0.00 0.00 0.00 37 1018.2
20260509182804 66 165 1.0 3.0 0.00 0.00 0.00 35 1018.1
20260509182306 66 144 2.0 6.0 0.00 0.00 0.00 37 1018.3
20260509181804 67 325 1.0 5.0 0.00 0.00 0.00 36 1018.4
20260509181304 67 155 1.0 5.0 0.00 0.00 0.00 36 1018.1
20260509180804 68 168 2.0 7.0 0.00 0.00 0.00 35 1018.4
20260509175804 66 222 2.0 6.0 0.00 0.00 0.00 37 1018.2
20260509175306 67 106 2.0 5.0 0.00 0.00 0.00 36 1018.2
20260509174804 67 63 0.0 3.0 0.00 0.00 0.00 39 1018.1
20260509174304 66 31 2.0 5.0 0.00 0.00 0.00 38 1018.3
20260509173803 65 68 2.0 3.0 0.00 0.00 0.00 40 1018.2
20260509173304 65 112 1.0 5.0 0.00 0.00 0.00 38 1018.1
20260509172804 65 146 2.0 5.0 0.00 0.00 0.00 39 1018.3
20260509171804 64 269 0.0 3.0 0.00 0.00 0.00 41 1018.0
20260509171304 62 346 1.0 3.0 0.00 0.00 0.00 44 1018.3
20260509170804 61 102 2.0 5.0 0.00 0.00 0.00 43 1018.2
20260509170304 61 236 1.0 5.0 0.00 0.00 0.00 45 1018.3
20260509165803 62 185 2.0 6.0 0.00 0.00 0.00 42 1018.3
20260509165306 62 48 2.0 6.0 0.00 0.00 0.00 44 1018.3
20260509164304 61 107 1.0 5.0 0.00 0.00 0.00 47 1018.3
20260509163304 58 121 1.0 2.0 0.00 0.00 0.00 52 1018.2
20260509162804 57 104 1.0 5.0 0.00 0.00 0.00 53 1018.3
20260509161804 56 94 1.0 5.0 0.00 0.00 0.00 54 1018.1
20260509161303 57 109 0.0 2.0 0.00 0.00 0.00 53 1018.3
20260509160804 57 56 0.0 1.0 0.00 0.00 0.00 55 1018.5
20260509160303 56 69 1.0 2.0 0.00 0.00 0.00 56 1018.4
20260509155803 56 112 0.0 2.0 0.00 0.00 0.00 55 1018.1
20260509155306 56 142 1.0 5.0 0.00 0.00 0.00 56 1018.1
20260509154804 56 72 1.0 2.0 0.00 0.00 0.00 56 1018.1
20260509154303 55 285 1.0 3.0 0.00 0.00 0.00 56 1018.0
20260509153804 54 172 1.0 2.0 0.00 0.00 0.00 56 1018.0
20260509153303 54 177 0.0 2.0 0.00 0.00 0.00 56 1017.9
20260509152804 54 140 1.0 3.0 0.00 0.00 0.00 57 1017.7
20260509152306 53 233 1.0 3.0 0.00 0.00 0.00 56 1017.9
20260509151304 53 143 1.0 2.0 0.00 0.00 0.00 59 1018.0
20260509150804 53 123 1.0 3.0 0.00 0.00 0.00 62 1017.9
20260509150304 53 159 1.0 3.0 0.00 0.00 0.00 62 1017.8
20260509145804 52 227 1.0 3.0 0.00 0.00 0.00 63 1017.8
20260509145306 52 182 1.0 2.0 0.00 0.00 0.00 63 1017.8
20260509144804 52 108 0.0 2.0 0.00 0.00 0.00 63 1017.8
20260509144304 52 127 1.0 2.0 0.00 0.00 0.00 60 1017.6
20260509143804 52 63 1.0 1.0 0.00 0.00 0.00 57 1017.7
20260509143304 52 60 0.0 1.0 0.00 0.00 0.00 57 1017.7
20260509142804 52 62 1.0 1.0 0.00 0.00 0.00 57 1017.5
20260509142307 52 69 0.0 1.0 0.00 0.00 0.00 55 1017.6
20260509141804 52 77 0.0 0.0 0.00 0.00 0.00 55 1017.5
20260509141304 52 77 0.0 0.0 0.00 0.00 0.00 55 1017.5
20260509140304 52 82 0.0 0.0 0.00 0.00 0.00 54 1017.5
20260509135804 52 80 0.0 0.0 0.00 0.00 0.00 54 1017.3
20260509135306 52 89 0.0 1.0 0.00 0.00 0.00 52 1017.3
20260509134804 51 88 0.0 1.0 0.00 0.00 0.00 51 1017.2
20260509134303 51 87 0.0 2.0 0.00 0.00 0.00 51 1017.1
20260509133803 51 80 0.0 1.0 0.00 0.00 0.00 51 1017.2
20260509133303 51 75 0.0 1.0 0.00 0.00 0.00 49 1017.1
20260509132804 51 73 0.0 1.0 0.00 0.00 0.00 48 1017.0
20260509132306 51 81 1.0 2.0 0.00 0.00 0.00 49 1017.0
20260509131304 50 80 0.0 1.0 0.00 0.00 0.00 49 1016.9
20260509130804 50 81 0.0 1.0 0.00 0.00 0.00 49 1016.8
20260509130304 50 91 0.0 1.0 0.00 0.00 0.00 50 1016.8
20260509125803 49 17 0.0 1.0 0.00 0.00 0.00 51 1016.7
20260509125307 49 23 0.0 1.0 0.00 0.00 0.00 51 1016.8
20260509124804 49 22 0.0 1.0 0.00 0.00 0.00 51 1016.8
20260509124304 49 45 0.0 1.0 0.00 0.00 0.00 52 1016.6
20260509123804 49 52 0.0 0.0 0.00 0.00 0.00 52 1016.6
20260509123304 49 53 0.0 0.0 0.00 0.00 0.00 52 1016.6
20260509122804 49 53 0.0 0.0 0.00 0.00 0.00 52 1016.6
20260509122306 48 52 0.0 0.0 0.00 0.00 0.00 52 1016.6
20260509121804 48 53 0.0 0.0 0.00 0.00 0.00 52 1016.7
20260509121304 48 53 0.0 0.0 0.00 0.00 0.00 52 1016.6
20260509120803 48 52 0.0 1.0 0.00 0.00 0.00 51 1016.4
20260509115804 48 68 0.0 1.0 0.00 0.00 0.00 50 1016.3
20260509115306 49 75 1.0 1.0 0.00 0.00 0.00 50 1016.5
20260509114804 49 75 1.0 1.0 0.00 0.00 0.00 51 1016.4
20260509114304 49 74 1.0 1.0 0.00 0.00 0.00 49 1016.2
20260509113803 49 74 0.0 1.0 0.00 0.00 0.00 50 1016.3
20260509113304 49 72 0.0 1.0 0.00 0.00 0.00 50 1016.1
20260509112804 49 72 0.0 1.0 0.00 0.00 0.00 50 1016.1
20260509112306 49 72 0.0 0.0 0.00 0.00 0.00 50 1015.9
20260509111804 49 72 0.0 0.0 0.00 0.00 0.00 49 1015.9
20260509111304 50 71 0.0 0.0 0.00 0.00 0.00 48 1016.1
20260509110304 50 72 0.0 0.0 0.00 0.00 0.00 47 1016.1
20260509105804 50 72 0.0 1.0 0.00 0.00 0.00 48 1016.0
20260509105306 50 108 0.0 1.0 0.00 0.00 0.00 46 1016.3
20260509104803 50 108 0.0 0.0 0.00 0.00 0.00 46 1016.2
20260509104304 50 118 0.0 1.0 0.00 0.00 0.00 45 1015.9
20260509103804 50 106 0.0 1.0 0.00 0.00 0.00 45 1016.0
20260509103304 50 106 0.0 0.0 0.00 0.00 0.00 46 1015.9
20260509102804 50 106 0.0 0.0 0.00 0.00 0.00 46 1015.9
20260509102306 50 105 0.0 1.0 0.00 0.00 0.00 46 1015.9
20260509101804 50 101 0.0 1.0 0.00 0.00 0.00 46 1016.0
20260509101304 50 101 0.0 1.0 0.00 0.00 0.00 46 1015.8
20260509100804 50 95 0.0 1.0 0.00 0.00 0.00 46 1015.9
20260509100304 50 98 0.0 0.0 0.00 0.00 0.00 46 1016.0
20260509094804 50 116 1.0 1.0 0.00 0.00 0.00 46 1015.9
20260509094305 51 106 0.0 1.0 0.00 0.00 0.00 45 1015.9
20260509093803 51 98 1.0 2.0 0.00 0.00 0.00 45 1015.9
20260509093304 51 101 0.0 1.0 0.00 0.00 0.00 45 1015.9
20260509092804 51 97 0.0 1.0 0.00 0.00 0.00 44 1015.9
20260509091804 51 95 0.0 1.0 0.00 0.00 0.00 45 1015.9
20260509091303 51 53 0.0 0.0 0.00 0.00 0.00 45 1016.0
20260509090804 51 53 0.0 1.0 0.00 0.00 0.00 45 1015.9
20260509090303 51 53 0.0 0.0 0.00 0.00 0.00 45 1015.9
20260509085804 51 53 0.0 0.0 0.00 0.00 0.00 45 1015.9
20260509085306 51 53 0.0 0.0 0.00 0.00 0.00 44 1016.0
20260509084804 51 53 0.0 0.0 0.00 0.00 0.00 43 1015.8
20260509084304 51 53 0.0 1.0 0.00 0.00 0.00 44 1016.0
20260509083804 51 54 0.0 1.0 0.00 0.00 0.00 43 1015.9
20260509083304 51 97 0.0 1.0 0.00 0.00 0.00 42 1015.9
20260509082804 52 159 0.0 2.0 0.00 0.00 0.00 42 1015.6
20260509082307 52 170 0.0 1.0 0.00 0.00 0.00 42 1015.7
20260509081804 52 150 1.0 1.0 0.00 0.00 0.00 42 1015.6
20260509080805 52 152 0.0 3.0 0.00 0.00 0.00 42 1015.7
20260509080304 52 87 0.0 2.0 0.00 0.00 0.00 41 1015.6
20260509075804 52 139 1.0 2.0 0.00 0.00 0.00 41 1015.6
20260509075306 53 173 1.0 2.0 0.00 0.00 0.00 41 1015.5
20260509074304 53 217 1.0 3.0 0.00 0.00 0.00 40 1015.5
20260509073804 53 128 0.0 1.0 0.00 0.00 0.00 39 1015.4
20260509072804 53 207 1.0 2.0 0.00 0.00 0.00 38 1015.5
20260509072306 54 239 1.0 5.0 0.00 0.00 0.00 38 1015.5
20260509071804 54 213 1.0 6.0 0.00 0.00 0.00 38 1015.4
20260509071304 54 226 1.0 3.0 0.00 0.00 0.00 37 1015.5
20260509070804 55 224 1.0 6.0 0.00 0.00 0.00 37 1015.4
20260509070304 55 221 2.0 5.0 0.00 0.00 0.00 37 1015.5
20260509064804 54 294 1.0 3.0 0.00 0.00 0.00 39 1015.6
20260509064304 55 282 0.0 1.0 0.00 0.00 0.00 39 1015.3
20260509063803 55 343 0.0 1.0 0.00 0.00 0.00 38 1015.2
20260509063304 55 5 0.0 0.0 0.00 0.00 0.00 37 1015.3
20260509062804 55 6 0.0 1.0 0.00 0.00 0.00 38 1015.3
20260509062306 55 16 0.0 1.0 0.00 0.00 0.00 37 1015.2
20260509061804 55 24 0.0 2.0 0.00 0.00 0.00 37 1015.2
20260509061304 55 134 1.0 2.0 0.00 0.00 0.00 37 1015.0
20260509060803 56 144 2.0 6.0 0.00 0.00 0.00 37 1014.7
20260509060304 56 177 2.0 5.0 0.00 0.00 0.00 36 1014.9
20260509055306 56 136 1.0 6.0 0.00 0.00 0.00 36 1015.0
20260509053804 56 276 1.0 3.0 0.00 0.00 0.00 35 1014.6
20260509053304 56 141 2.0 6.0 0.00 0.00 0.00 35 1014.6
20260509052307 57 184 1.0 6.0 0.00 0.00 0.00 34 1014.5
20260509051804 57 164 3.0 7.0 0.00 0.00 0.00 34 1014.4
20260509051304 57 117 3.0 6.0 0.00 0.00 0.00 34 1014.3
20260509050804 57 189 3.0 7.0 0.00 0.00 0.00 34 1014.5
20260509050304 57 241 2.0 6.0 0.00 0.00 0.00 34 1014.5
20260509045804 57 205 2.0 5.0 0.00 0.00 0.00 34 1014.5
20260509045306 57 170 1.0 5.0 0.00 0.00 0.00 34 1014.4
20260509044804 58 169 1.0 3.0 0.00 0.00 0.00 34 1014.4
20260509043804 58 152 1.0 2.0 0.00 0.00 0.00 33 1014.3
20260509043304 58 127 1.0 1.0 0.00 0.00 0.00 33 1014.0
20260509042804 58 162 1.0 1.0 0.00 0.00 0.00 33 1014.2
20260509042306 58 123 0.0 1.0 0.00 0.00 0.00 33 1014.1
20260509041804 58 157 0.0 1.0 0.00 0.00 0.00 33 1014.2
20260509041304 58 169 0.0 1.0 0.00 0.00 0.00 32 1014.2
20260509035804 58 105 0.0 1.0 0.00 0.00 0.00 32 1014.0
20260509034804 59 97 0.0 2.0 0.00 0.00 0.00 32 1013.8
20260509034303 59 128 0.0 1.0 0.00 0.00 0.00 32 1013.8
20260509033803 59 157 0.0 2.0 0.00 0.00 0.00 31 1013.8
20260509033303 59 96 0.0 1.0 0.00 0.00 0.00 32 1013.7
20260509032803 59 97 0.0 2.0 0.00 0.00 0.00 31 1013.6
20260509032306 59 196 0.0 3.0 0.00 0.00 0.00 31 1013.4
20260509030804 60 201 1.0 3.0 0.00 0.00 0.00 31 1013.3
20260509030304 60 172 2.0 6.0 0.00 0.00 0.00 31 1013.2
20260509025804 60 175 1.0 5.0 0.00 0.00 0.00 31 1013.2
20260509025306 60 121 1.0 3.0 0.00 0.00 0.00 31 1013.1
20260509024304 60 147 0.0 3.0 0.00 0.00 0.00 31 1012.9
20260509023804 61 180 1.0 3.0 0.00 0.00 0.00 30 1012.7
20260509022804 61 154 1.0 5.0 0.00 0.00 0.00 30 1012.7
20260509022306 61 170 1.0 5.0 0.00 0.00 0.00 29 1012.5
20260509021303 61 151 2.0 6.0 0.00 0.00 0.00 29 1012.6
20260509020804 62 139 1.0 5.0 0.00 0.00 0.00 29 1012.5
20260509020304 62 182 2.0 6.0 0.00 0.00 0.00 28 1012.4
20260509015803 62 132 2.0 7.0 0.00 0.00 0.00 28 1012.5
20260509015306 62 137 2.0 5.0 0.00 0.00 0.00 28 1012.6
20260509014803 62 92 3.0 6.0 0.00 0.00 0.00 28 1012.4
20260509014303 62 159 3.0 7.0 0.00 0.00 0.00 28 1012.5
20260509013804 63 131 2.0 7.0 0.00 0.00 0.00 28 1012.2
20260509013304 63 124 2.0 7.0 0.00 0.00 0.00 27 1012.4
20260509012804 63 118 2.0 7.0 0.00 0.00 0.00 27 1012.6
20260509012306 63 165 3.0 8.0 0.00 0.00 0.00 27 1012.3
20260509011804 63 171 4.0 10.0 0.00 0.00 0.00 27 1012.3
20260509005804 64 88 2.0 9.0 0.00 0.00 0.00 27 1012.2
20260509004804 64 153 4.0 9.0 0.00 0.00 0.00 26 1012.3
20260509004303 65 158 3.0 7.0 0.00 0.00 0.00 26 1012.0
20260509003804 65 116 3.0 7.0 0.00 0.00 0.00 26 1012.1
20260509003304 65 178 3.0 10.0 0.00 0.00 0.00 26 1012.2
20260509002804 65 154 2.0 7.0 0.00 0.00 0.00 26 1012.2
20260509001804 65 101 3.0 8.0 0.00 0.00 0.00 26 1012.2
20260509001303 65 121 5.0 9.0 0.00 0.00 0.00 26 1012.0
20260509000804 65 121 3.0 10.0 0.00 0.00 0.00 25 1012.1
20260509000304 65 123 4.0 8.0 0.00 0.00 0.00 25 1012.1
20260508235306 65 114 3.0 8.0 0.00 0.00 0.00 25 1012.0
20260508234304 66 111 2.0 8.0 0.00 0.00 0.00 24 1012.0
20260508233804 66 139 2.0 10.0 0.00 0.00 0.00 24 1012.2
20260508233303 66 134 3.0 8.0 0.00 0.00 0.00 24 1012.0
20260508232805 67 107 5.0 9.0 0.00 0.00 0.00 24 1012.2
20260508232307 67 83 3.0 10.0 0.00 0.00 0.00 24 1012.0
20260508231804 67 120 4.0 10.0 0.00 0.00 0.00 24 1011.9
20260508231304 67 106 4.0 10.0 0.00 0.00 0.00 23 1012.1
20260508230803 67 128 2.0 8.0 0.00 0.00 0.00 23 1011.9
20260508230304 67 109 6.0 12.0 0.00 0.00 0.00 23 1012.0
20260508225306 68 110 4.0 9.0 0.00 0.00 0.00 23 1011.8
20260508224804 68 106 2.0 9.0 0.00 0.00 0.00 23 1011.8
20260508224304 68 80 5.0 12.0 0.00 0.00 0.00 23 1012.0
20260508223804 68 175 4.0 14.0 0.00 0.00 0.00 22 1011.8
20260508222804 69 112 5.0 12.0 0.00 0.00 0.00 23 1011.8